Regional Weather Roundup
Issued by NWS

Home | Current Version | Previous Version | Graphics & Text | Print | Product List | Glossary On
Versions: 1 2 3 4 5 6 7 8 9 10 11 12 13 14 15 16 17 18 19 20 21 22 23 24 25 26 27 28 29 30 31 32 33 34 35 36 37 38 39 40 41 42 43 44 45 46 47 48 49 50
000
ASUS43 KDMX 251506
RWRIA

WEATHER ROUNDUP FOR IOWA
NATIONAL WEATHER SERVICE DES MOINES IA
1000 AM CDT WED APR 25 2018

NOTE: "FAIR" INDICATES FEW OR NO CLOUDS BELOW 12,000 FEET WITH NO
SIGNIFICANT WEATHER AND/OR OBSTRUCTIONS TO VISIBILITY.

* - THESE STATIONS ARE NOT NWS STATIONS...THUS NOT UNDER NWS
QUALITY CONTROL.  THEY ALSO DO NOT REPORT WEATHER SUCH
AS PRECIPITATION OR FOG.

IAZ001>003-012>014-020>022-031>034-043>046-251600-
   NORTHWEST IOWA

CITY           SKY/WX    TMP DP  RH WIND       PRES   REMARKS
CARROLL *      CLOUDY    50  34  53 N10G17    30.22F
CHEROKEE *     SUNNY     47  34  59 NE7       30.25F
DENISON *      CLOUDY    48  37  66 N9        30.25S
LE MARS *      SUNNY     46  36  66 N8        30.26F
ORANGE CITY *  SUNNY     46  39  76 N3        30.26S
SHELDON *      SUNNY     46  34  61 VRB5      30.24F
SIOUX CITY     SUNNY     47  34  60 NW6       30.27F
SPENCER        SUNNY     46  32  58 N8        30.25F
STORM LAKE *   SUNNY     45  34  65 NE8       30.24S
$$

IAZ055>058-069>071-079>083-090>094-251600-
   SOUTHWEST IOWA

CITY           SKY/WX    TMP DP  RH WIND       PRES   REMARKS
ATLANTIC *     CLOUDY    46  39  76 N10       30.22F
AUDUBON *      CLOUDY    46  39  76 N8        30.23F
CRESTON *      CLOUDY    46  39  76 N13       30.21S
HARLAN  *      CLOUDY    45  39  81 N10       30.26F
LAMONI         LGT RAIN  47  39  74 N8        30.17S
RED OAK *      CLOUDY    45  41  87 N10       30.23S
SHENANDOAH *   LGT RAIN  45  43  93 N9        30.24S
$$

IAZ047>049-059>061-072>074-084-251600-
   CENTRAL IOWA

CITY           SKY/WX    TMP DP  RH WIND       PRES   REMARKS
AMES           CLOUDY    52  35  52 NE6       30.20S
ANKENY *       CLOUDY    52  34  50 N12       30.20F
BOONE *        CLOUDY    50  36  57 N8        30.20S
CHARITON *     CLOUDY    50  36  57 NE9G15    30.17
DES MOINES     CLOUDY    53  33  46 NE14      30.19S
GRINNELL*      PTSUNNY   52  35  52 NE12      30.19S
KNOXVILLE *    CLOUDY    50  34  53 NE10      30.17R
MARSHALLTOWN   CLOUDY    52  36  54 NE9       30.18F
NEWTON *       CLOUDY    52  36  54 NE12      30.18S
PELLA *        CLOUDY    55  36  48 NE5       30.19S
PERRY *        FAIR      50  32  49 N9        30.21F
$$

IAZ004>006-015-016-023>025-035-036-251600-
   NORTH CENTRAL IOWA

CITY           SKY/WX    TMP DP  RH WIND       PRES   REMARKS
ALGONA *       SUNNY     45  36  70 N9        30.24S
CLARION *      SUNNY     50  34  53 NE9       30.21F
ESTHERVILLE    SUNNY     42  32  67 N8        30.25S
FORT DODGE *   SUNNY     48  35  60 N8        30.22F
MASON CITY     SUNNY     46  35  65 E3        30.23S
FOREST CITY *  FAIR      46  34  61 N5        30.22F
WEBSTER CITY * CLOUDY    50  36  57 N6G13     30.19F
IOWA FALLS *   FAIR      52  34  51 NE9       30.21S
$$

IAZ007>011-017>019-026>030-037>042-050>054-066-251600-
   NORTHEAST IOWA

CITY           SKY/WX    TMP DP  RH WIND       PRES   REMARKS
CEDAR RAPIDS   FAIR      54  35  48 NE12      30.16R
CHARLES CITY * FAIR      50  36  57 NE6       30.21S
CLINTON *      FAIR      53  36  52 NE13      30.15F
DECORAH *      FAIR      48  36  61 VRB5      30.18F
DUBUQUE        FAIR      50  37  61 NE7       30.16S
MONTICELLO *   FAIR      54  36  50 N9        30.17R
OELWEIN *      FAIR      52  37  58 VRB6      30.19S
WATERLOO       FAIR      53  36  52 N9        30.19F
$$

IAZ064-065-067-068-078-251600-
   EAST CENTRAL IOWA

CITY           SKY/WX    TMP DP  RH WIND       PRES   REMARKS
DAVENPORT      FAIR      53  33  46 NE14G23   30.17R
IOWA CITY      FAIR      53  34  48 NE9       30.18R
MT. PLEASANT * CLOUDY    54  32  43 NE10      30.15R
MUSCATINE *    FAIR      55  32  41 NE14G20   30.16R
QUAD CITIES    FAIR      55  35  47 NE10      30.13F
$$

IAZ062-063-075>077-085>089-095>099-251600-
   SOUTHEAST IOWA

CITY           SKY/WX    TMP DP  RH WIND       PRES   REMARKS
BURLINGTON     CLOUDY    52  35  52 NE10      30.13R
FAIRFIELD *    CLOUDY    54  36  50 NE15      30.15S
FORT MADISON * CLOUDY    52  37  58 NE8       30.14R
KEOKUK *       CLOUDY    54  36  50 NE8       30.14R
OSKALOOSA *    PTSUNNY   51  34  52 E13       30.17S
CENTERVILLE *  FAIR      50  37  62 N9        30.17S
OTTUMWA        CLOUDY    53  36  52 NE13      30.16S
WASHINGTON *   CLOUDY    54  34  47 NE14      30.17R
$$

ABBREVIATIONS USED IN REMARKS
   TC - TEMPERATURES IN CELSIUS
  WCI - WIND CHILL INDEX
   HX - HEAT INDEX
  VSB - VISIBILITY
$$





USA.gov is the U.S. government's official web portal to all federal, state and local government web resources and services.